• In Uzbekistan
  • List of Countries
  • For 7 days
  • Water Temperature
  • Weather Map
  • Weather Widgets
  • user-avatar
    Login

    Hourly Weather Idzhewan

    Today, 2 April, Thursday

    Time Temperature Precipitation Wind Pressure Humidity
    00:00 +10°C° 0.3 mm 0 mps 685 mmHg 91%
    01:00 +10°C° 0.3 mm 1 mps 685 mmHg 93%
    02:00 +10°C° 0.3 mm 1 mps 685 mmHg 94%
    03:00 +10°C° 0 mm 1 mps 685 mmHg 94%
    04:00 +8°C° 0.6 mm 2 mps 685 mmHg 95%
    05:00 +8°C° 0.6 mm 2 mps 685 mmHg 96%
    06:00 +8°C° 0.6 mm 2 mps 685 mmHg 97%
    07:00 +7°C° 1.4 mm 2 mps 686 mmHg 96%
    08:00 +7°C° 1.4 mm 2 mps 686 mmHg 94%
    09:00 +7°C° 1.4 mm 1 mps 687 mmHg 92%
    10:00 +8°C° 0.3 mm 1 mps 687 mmHg 90%
    11:00 +9°C° 0.3 mm 1 mps 687 mmHg 88%
    12:00 +10°C° 0.3 mm 1 mps 687 mmHg 85%
    13:00 +10°C° 0.2 mm 1 mps 687 mmHg 84%
    14:00 +10°C° 0.2 mm 1 mps 687 mmHg 83%
    15:00 +11°C° 0.2 mm 1 mps 687 mmHg 82%
    16:00 +11°C° 0 mm 1 mps 687 mmHg 82%
    17:00 +10°C° 0 mm 1 mps 687 mmHg 83%
    18:00 +10°C° 0 mm 1 mps 687 mmHg 83%
    19:00 +9°C° 0 mm 1 mps 687 mmHg 84%
    20:00 +9°C° 0 mm 1 mps 688 mmHg 84%
    21:00 +7°C° 0 mm 0 mps 688 mmHg 85%
    22:00 +7°C° 0 mm 0 mps 689 mmHg 85%
    23:00 +8°C° 0 mm 1 mps 689 mmHg 84%

    Tomorrow, 3 April, Friday

    Time Temperature Precipitation Wind Pressure Humidity
    00:00 +7°C° 0 mm 1 mps 689 mmHg 84%
    01:00 +7°C° 0 mm 1 mps 689 mmHg 84%
    02:00 +7°C° 0 mm 1 mps 689 mmHg 83%
    03:00 +7°C° 0 mm 1 mps 689 mmHg 83%
    04:00 +7°C° 0 mm 1 mps 689 mmHg 83%
    05:00 +7°C° 0 mm 1 mps 689 mmHg 82%
    06:00 +7°C° 0 mm 1 mps 689 mmHg 82%
    07:00 +8°C° 0 mm 1 mps 690 mmHg 77%
    08:00 +10°C° 0 mm 1 mps 690 mmHg 73%
    09:00 +12°C° 0 mm 1 mps 690 mmHg 68%
    10:00 +13°C° 0 mm 2 mps 690 mmHg 66%
    11:00 +13°C° 0 mm 2 mps 689 mmHg 65%
    12:00 +14°C° 0 mm 2 mps 689 mmHg 63%
    13:00 +14°C° 0.2 mm 2 mps 689 mmHg 63%
    14:00 +15°C° 0.2 mm 2 mps 689 mmHg 63%
    15:00 +15°C° 0.2 mm 2 mps 689 mmHg 63%
    16:00 +14°C° 0.2 mm 2 mps 688 mmHg 69%
    17:00 +13°C° 0.2 mm 2 mps 688 mmHg 76%
    18:00 +12°C° 0.2 mm 2 mps 688 mmHg 82%
    19:00 +11°C° 0.1 mm 1 mps 689 mmHg 85%
    20:00 +11°C° 0.1 mm 1 mps 689 mmHg 88%
    21:00 +9°C° 0.1 mm 0 mps 690 mmHg 91%
    22:00 +9°C° 0.2 mm 0 mps 690 mmHg 92%
    23:00 +9°C° 0.2 mm 0 mps 690 mmHg 93%

    Day after tomorrow, 4 April, Saturday

    Time Temperature Precipitation Wind Pressure Humidity
    00:00 +9°C° 0.2 mm 0 mps 690 mmHg 94%
    01:00 +10°C° 0.6 mm 1 mps 690 mmHg 95%
    02:00 +10°C° 0.6 mm 1 mps 690 mmHg 96%
    03:00 +9°C° 0.6 mm 1 mps 690 mmHg 97%
    04:00 +9°C° 1 mm 1 mps 690 mmHg 97%
    05:00 +9°C° 1 mm 1 mps 690 mmHg 98%
    06:00 +9°C° 1 mm 1 mps 691 mmHg 98%
    07:00 +9°C° 1.7 mm 1 mps 691 mmHg 97%
    08:00 +9°C° 1.7 mm 1 mps 691 mmHg 97%
    09:00 +9°C° 1.7 mm 1 mps 691 mmHg 97%
    10:00 +8°C° 2.2 mm 1 mps 691 mmHg 97%
    11:00 +8°C° 2.2 mm 1 mps 691 mmHg 97%
    12:00 +8°C° 2.2 mm 1 mps 692 mmHg 97%
    13:00 +8°C° 0.4 mm 1 mps 692 mmHg 95%
    14:00 +9°C° 0.4 mm 1 mps 692 mmHg 94%
    15:00 +9°C° 0.4 mm 1 mps 692 mmHg 92%
    16:00 +9°C° 0.1 mm 1 mps 692 mmHg 92%
    17:00 +9°C° 0.1 mm 1 mps 693 mmHg 93%
    18:00 +9°C° 0.1 mm 1 mps 693 mmHg 93%
    19:00 +9°C° 0 mm 1 mps 694 mmHg 92%
    20:00 +9°C° 0 mm 1 mps 695 mmHg 90%
    21:00 +8°C° 0 mm 1 mps 695 mmHg 89%
    22:00 +8°C° 0 mm 1 mps 696 mmHg 87%
    23:00 +8°C° 0 mm 1 mps 696 mmHg 86%

    5 April, Sunday

    Time Temperature Precipitation Wind Pressure Humidity
    00:00 +7°C° 0 mm 1 mps 696 mmHg 84%
    01:00 +6°C° 0 mm 2 mps 696 mmHg 83%
    02:00 +6°C° 0 mm 2 mps 696 mmHg 81%
    03:00 +6°C° 0 mm 2 mps 695 mmHg 80%
    04:00 +5°C° 0 mm 2 mps 695 mmHg 79%
    05:00 +5°C° 0 mm 2 mps 696 mmHg 78%
    06:00 +5°C° 0 mm 2 mps 696 mmHg 78%
    07:00 +7°C° 0 mm 2 mps 695 mmHg 76%
    08:00 +10°C° 0 mm 1 mps 695 mmHg 74%
    09:00 +12°C° 0 mm 1 mps 695 mmHg 73%
    10:00 +13°C° 0 mm 1 mps 695 mmHg 71%
    11:00 +14°C° 0 mm 2 mps 695 mmHg 70%
    12:00 +14°C° 0 mm 2 mps 695 mmHg 68%
    13:00 +15°C° 0 mm 2 mps 694 mmHg 68%
    14:00 +15°C° 0 mm 2 mps 694 mmHg 68%
    15:00 +15°C° 0 mm 2 mps 693 mmHg 67%
    16:00 +14°C° 0 mm 1 mps 693 mmHg 72%
    17:00 +14°C° 0 mm 1 mps 693 mmHg 76%
    18:00 +12°C° 0 mm 0 mps 693 mmHg 80%
    19:00 +12°C° 0 mm 1 mps 693 mmHg 79%
    20:00 +12°C° 0 mm 1 mps 693 mmHg 79%
    21:00 +11°C° 0 mm 1 mps 693 mmHg 78%
    22:00 +11°C° 0 mm 1 mps 693 mmHg 79%
    23:00 +11°C° 0 mm 1 mps 693 mmHg 80%

    6 April, Monday

    Time Temperature Precipitation Wind Pressure Humidity
    00:00 +11°C° 0 mm 1 mps 692 mmHg 81%
    01:00 +11°C° 0.1 mm 1 mps 692 mmHg 82%
    02:00 +11°C° 0.1 mm 1 mps 692 mmHg 84%
    03:00 +11°C° 0.1 mm 1 mps 692 mmHg 85%
    04:00 +11°C° 0.2 mm 1 mps 692 mmHg 87%
    05:00 +11°C° 0.2 mm 1 mps 691 mmHg 89%
    06:00 +11°C° 0.2 mm 1 mps 691 mmHg 91%
    07:00 +11°C° 0 mm 1 mps 692 mmHg 90%
    08:00 +12°C° 0 mm 1 mps 692 mmHg 88%
    09:00 +12°C° 0 mm 1 mps 692 mmHg 87%
    10:00 +12°C° 0.6 mm 1 mps 692 mmHg 88%
    11:00 +12°C° 0.6 mm 2 mps 691 mmHg 89%
    12:00 +10°C° 0.6 mm 2 mps 691 mmHg 91%
    13:00 +11°C° 0.9 mm 1 mps 691 mmHg 92%
    14:00 +10°C° 0.9 mm 1 mps 691 mmHg 94%
    15:00 +10°C° 0.9 mm 1 mps 690 mmHg 95%
    16:00 +9°C° 1.5 mm 1 mps 691 mmHg 96%
    17:00 +9°C° 1.5 mm 1 mps 691 mmHg 96%
    18:00 +9°C° 1.5 mm 1 mps 691 mmHg 97%
    19:00 +9°C° 1.5 mm 1 mps 692 mmHg 96%
    20:00 +8°C° 1.5 mm 1 mps 692 mmHg 96%
    21:00 +8°C° 1.5 mm 1 mps 693 mmHg 95%
    22:00 +7°C° 0.7 mm 1 mps 693 mmHg 94%
    23:00 +6°C° 0.7 mm 2 mps 693 mmHg 93%

    7 April, Tuesday

    Time Temperature Precipitation Wind Pressure Humidity
    00:00 +5°C° 0.7 mm 2 mps 694 mmHg 92%
    01:00 +4°C° 0.5 mm 2 mps 694 mmHg 91%
    02:00 +3°C° 0.5 mm 2 mps 694 mmHg 90%
    03:00 +2°C° 0.5 mm 2 mps 695 mmHg 90%
    04:00 +3°C° 0.1 mm 1 mps 695 mmHg 89%
    05:00 +2°C° 0.1 mm 1 mps 696 mmHg 87%
    06:00 +2°C° 0.1 mm 1 mps 696 mmHg 86%
    07:00 +2°C° 0.1 mm 1 mps 697 mmHg 85%
    08:00 +2°C° 0.1 mm 2 mps 697 mmHg 84%
    09:00 +3°C° 0.1 mm 2 mps 697 mmHg 84%
    10:00 +3°C° 0.2 mm 2 mps 697 mmHg 81%
    11:00 +3°C° 0.2 mm 3 mps 697 mmHg 78%
    12:00 +3°C° 0.2 mm 3 mps 697 mmHg 75%
    13:00 +4°C° 0.1 mm 3 mps 697 mmHg 72%
    14:00 +4°C° 0.1 mm 3 mps 697 mmHg 70%
    15:00 +4°C° 0.1 mm 3 mps 697 mmHg 68%
    16:00 +4°C° 0 mm 2 mps 698 mmHg 72%
    17:00 +4°C° 0 mm 2 mps 698 mmHg 77%
    18:00 +3°C° 0 mm 2 mps 698 mmHg 81%
    19:00 +3°C° 0 mm 1 mps 699 mmHg 84%
    20:00 +2°C° 0 mm 1 mps 700 mmHg 87%
    21:00 +1°C° 0 mm 1 mps 701 mmHg 90%
    22:00 +1°C° 0 mm 1 mps 702 mmHg 89%
    23:00 +1°C° 0 mm 1 mps 702 mmHg 88%
    Show more